#timestamp,LO_Frequency,Hit,StdDev 
1663113615.6,286047000.7,N
1663113635.5,286047000.1,N
1663113655.3,286046999.7,N
1663113675.1,286047000.3,N
1663113695.9,286047000.4,N
1663113715.7,286047001.2,N
1663113735.6,286046998.2,N
1663113755.4,286047000.8,N
1663113775.2,286047000.2,N
1663113795.1,286047002.0,N
1663113796.0,286047002.0,N
1663113815.8,286047002.2,N
1663113835.6,286047001.9,N
1663113855.5,286047001.8,N
1663113875.3,286047002.3,N
1663113895.2,286046999.7,N
1663113915.9,286047001.6,N
1663113935.7,286047001.9,N
1663113955.6,286047002.2,N
1663113975.4,286047002.7,N
1663113995.2,286047002.4,N
1663114015.1,286047001.5,N
1663114016.0,286047001.5,N
1663114035.8,286047003.9,Y
1663114055.7,286047001.7,P
1663114075.5,286047002.8,P
1663114095.3,286047001.8,N
1663114115.2,286047002.0,Y
1663114135.0,286047000.9,P
1663114135.9,286047000.9,N
1663114155.8,286047001.1,N
1663114175.6,286047000.9,N
1663114195.4,286047000.6,N
1663114215.3,286047000.3,N
1663114235.1,286047000.2,N
1663114255.9,286047002.8,Y
1663114275.7,286047000.8,P
1663114295.6,286047000.6,P
1663114315.4,286047002.8,P
1663114335.2,286047002.7,N
1663114355.1,286047002.6,N
1663114356.0,286047002.6,N
1663114375.8,286047002.0,N
1663114395.7,286047000.2,N
1663114415.5,286046999.8,N
1663114435.3,286047000.4,N
1663114455.2,286047002.3,N
1663114475.0,286047000.5,N
1663114475.9,286047000.5,N
1663114495.8,286046998.3,N
1663114515.6,286047001.2,N
1663114535.4,286046999.3,N
1663114555.3,286046999.3,N
1663114575.1,286046998.8,N
1663114595.8,286046998.6,N
1663114615.7,286047001.1,N
1663114635.5,286046999.7,N
1663114655.4,286047000.9,N
1663114675.2,286047002.3,N
1663114695.0,286047002.4,N
1663114695.9,286047002.4,N
1663114715.8,286047002.5,N
1663114735.6,286047002.1,N
1663114755.4,286047001.4,N
1663114775.3,286047001.9,N
1663114795.1,286047002.1,N
1663114815.9,286047002.8,N
1663114835.7,286047002.4,N
1663114855.5,286047000.0,N
1663114875.4,286047002.4,N
1663114895.2,286046999.8,N
1663114915.1,286047000.5,N
1663114916.0,286047000.5,N
1663114935.8,286046999.9,N
1663114955.7,286047002.2,N
1663114975.5,286047002.4,N
1663114995.3,286047002.0,N
1663115015.2,286047002.4,N
1663115035.0,286047000.0,N
1663115035.9,286047000.0,N
1663115055.7,286047000.4,N
1663115075.6,286047000.1,N
1663115095.4,286047002.8,N
1663115115.3,286046998.6,N
1663115135.1,286047001.2,N
1663115155.8,286046999.8,N
1663115175.7,286047000.1,N
1663115195.5,286047002.0,N
1663115215.4,286047000.0,N
1663115235.2,286047001.8,N
1663115255.0,286047001.8,N
1663115255.9,286047001.8,N
1663115275.8,286047002.6,N
1663115295.6,286047001.5,N
1663115315.4,286047004.0,Y
1663115335.3,286047002.0,P
1663115355.1,286046999.7,N
1663115375.9,286047000.1,N
1663115395.7,286047000.2,N
1663115415.5,286047002.8,Y
1663115435.4,286047000.4,P
1663115455.2,286047000.6,P
1663115475.1,286046998.1,P
1663115476.0,286046998.1,N
1663115495.8,286046998.3,N
1663115515.6,286047000.0,N
1663115535.5,286047000.6,N
1663115555.3,286047000.7,N
1663115575.2,286047000.4,N
1663115595.9,286047002.5,N
1663115615.7,286047002.2,N
1663115635.6,286047002.4,N
1663115655.4,286047002.1,N
1663115675.2,286047002.6,N
1663115695.1,286047001.6,N
1663115696.0,286047001.6,N
1663115715.8,286047004.2,N
1663115735.7,286047004.3,N
1663115755.5,286047004.0,N
1663115775.3,286047004.0,N
1663115795.2,286047006.0,Y
1663115815.0,286047001.5,P
1663115815.9,286047001.5,P
1663115835.7,286047001.9,P
1663115855.6,286047000.3,N
1663115875.4,286047002.7,Y
1663115895.3,286046996.5,P
1663115915.1,286046999.0,N
1663115935.8,286046998.3,N
1663115955.7,286047001.0,N
1663115975.5,286046996.5,N
1663115995.4,286046999.4,N
1663116015.2,286046998.5,N
1663116035.0,286047000.8,N
1663116035.9,286047000.8,N
1663116055.8,286046998.2,N
1663116075.6,286047001.0,N
1663116095.4,286047000.8,N
1663116115.3,286046998.3,N
1663116135.1,286046998.7,N
1663116155.9,286046998.3,N
1663116175.7,286046998.9,N
1663116195.5,286047000.9,N
1663116215.4,286046998.2,N
1663116235.2,286046999.2,N
1663116255.0,286046999.2,N
1663116255.9,286046999.2,N
1663116275.8,286046996.9,N
1663116295.6,286046996.8,N
1663116315.5,286046997.2,N
1663116335.3,286046996.8,N
1663116355.1,286046996.7,N
1663116375.9,286047000.6,N
1663116395.7,286047000.6,N
1663116415.6,286046998.7,N
1663116435.4,286046996.9,N
1663116455.2,286046997.2,N
1663116475.1,286046999.2,N
1663116476.0,286046999.2,N
1663116495.8,286046997.2,N
1663116515.6,286046997.9,N
1663116535.5,286046997.5,N
1663116555.3,286046997.5,N
1663116575.2,286046996.2,N
1663116595.9,286046993.7,Y
1663116615.8,286046996.7,P
1663116635.6,286046999.5,N
1663116655.4,286046998.7,N
1663116675.3,286046999.4,N
1663116695.1,286046998.4,N
1663116715.8,286046998.6,N
1663116735.7,286046999.9,N
1663116755.5,286047002.8,Y
1663116775.4,286047004.1,P
1663116795.2,286047004.0,N
1663116815.0,286047003.8,N
1663116815.9,286047003.8,N
1663116835.8,286047003.7,N
1663116855.6,286047001.9,N
1663116875.4,286047003.9,N
1663116895.3,286047003.2,N
1663116915.1,286047003.5,N
1663116935.9,286047003.0,N
1663116955.7,286047004.1,N
1663116975.5,286047004.1,N
1663116995.4,286047006.0,Y
1663117015.2,286047002.3,P
1663117035.0,286047000.0,N
1663117035.9,286047000.0,N
1663117055.8,286047000.4,N
1663117075.6,286046999.9,N
1663117095.5,286047000.7,N
1663117115.3,286047002.4,N
1663117135.1,286046999.7,N
1663117155.9,286046999.7,N
1663117175.7,286047002.8,N
1663117195.6,286047002.0,N
